Voltar ao catálogo

STARLINK-4501

AtivoComunicaçõesVLEO
NORAD 53553·PAYLOAD·🇺🇸 United States

Lançado Aug 19, 2022 de Cape Canaveral Space Force Station

Loading…

Próximas Passagens (próximas 24 horas)

TLE

AtualizadoSource: CelesTrak SupGP

Época: Sep 15, 2026, 02:20 UTC

1 53553C 22101AC  26258.09770833  .00020907  00000+0  13110-2 0  2580
2 53553  53.1589 293.0811 0001265  87.9022 229.2206 15.08826144    13

Acompanhe STARLINK-4501 em tempo real com AllMySat

Download on the App Store